TimeEST,TemperatureF,Dew PointF,Humidity,Sea Level PressureIn,VisibilityMPH,Wind Direction,Wind SpeedMPH,Gust SpeedMPH,PrecipitationIn,Events,Conditions,WindDirDegrees,DateUTC
12:53 AM,66.9,64.0,90,30.05,10.0,NW,6.9,-,N/A,,Clear,310,2013-01-22 05:53:00
1:53 AM,66.0,63.0,90,30.04,10.0,WNW,4.6,-,N/A,,Clear,300,2013-01-22 06:53:00
2:26 AM,66.2,64.4,94,30.04,10.0,West,5.8,-,N/A,,Overcast,280,2013-01-22 07:26:00
2:44 AM,66.2,64.4,94,30.03,10.0,WNW,6.9,-,N/A,,Overcast,290,2013-01-22 07:44:00
2:53 AM,66.0,64.0,93,30.03,10.0,West,5.8,-,N/A,,Overcast,280,2013-01-22 07:53:00
3:36 AM,64.4,62.6,94,30.02,10.0,NW,8.1,-,N/A,,Scattered Clouds,310,2013-01-22 08:36:00
3:53 AM,64.9,63.0,93,30.03,10.0,NW,8.1,-,N/A,,Mostly Cloudy,310,2013-01-22 08:53:00
4:53 AM,64.9,62.1,90,30.04,10.0,NW,6.9,-,N/A,,Scattered Clouds,320,2013-01-22 09:53:00
5:53 AM,64.0,61.0,90,30.06,10.0,NW,9.2,-,N/A,,Clear,320,2013-01-22 10:53:00
6:53 AM,63.0,60.1,90,30.08,10.0,NW,8.1,-,N/A,,Partly Cloudy,320,2013-01-22 11:53:00
7:53 AM,63.0,59.0,87,30.11,10.0,NNW,8.1,-,N/A,,Clear,330,2013-01-22 12:53:00
8:53 AM,66.9,59.0,76,30.12,10.0,North,8.1,-,N/A,,Clear,350,2013-01-22 13:53:00
9:53 AM,70.0,59.0,68,30.14,10.0,NNW,12.7,-,N/A,,Clear,340,2013-01-22 14:53:00
10:53 AM,71.1,57.9,63,30.14,10.0,North,11.5,-,N/A,,Clear,360,2013-01-22 15:53:00
11:53 AM,73.9,57.9,57,30.14,10.0,North,11.5,-,N/A,,Clear,360,2013-01-22 16:53:00
12:53 PM,77.0,57.9,52,30.11,10.0,North,10.4,-,N/A,,Mostly Cloudy,350,2013-01-22 17:53:00
1:53 PM,78.1,57.9,50,30.10,10.0,NNW,12.7,-,N/A,,Scattered Clouds,330,2013-01-22 18:53:00
2:53 PM,78.1,57.0,48,30.09,10.0,North,12.7,18.4,N/A,,Scattered Clouds,360,2013-01-22 19:53:00
3:53 PM,75.9,57.0,52,30.11,10.0,North,15.0,21.9,N/A,,Mostly Cloudy,360,2013-01-22 20:53:00
4:53 PM,73.9,55.9,53,30.12,10.0,NNE,16.1,-,N/A,,Scattered Clouds,20,2013-01-22 21:53:00
5:53 PM,71.1,55.9,59,30.15,10.0,North,13.8,19.6,N/A,,Partly Cloudy,10,2013-01-22 22:53:00
6:53 PM,69.1,55.9,63,30.16,10.0,North,9.2,-,N/A,,Clear,360,2013-01-22 23:53:00
7:53 PM,68.0,55.0,63,30.17,10.0,North,10.4,-,N/A,,Clear,350,2013-01-23 00:53:00
8:53 PM,66.9,54.0,63,30.19,10.0,North,6.9,-,N/A,,Partly Cloudy,350,2013-01-23 01:53:00
9:53 PM,66.0,54.0,65,30.22,10.0,NNW,8.1,-,N/A,,Mostly Cloudy,340,2013-01-23 02:53:00
10:53 PM,64.9,55.0,70,30.22,10.0,North,8.1,-,N/A,,Clear,350,2013-01-23 03:53:00
11:53 PM,63.0,55.9,78,30.21,10.0,NNW,8.1,-,N/A,,Clear,340,2013-01-23 04:53:00